This is the latest recevied weather packets stored in our database for station/object KD9JB-1. If no packets are shown the sender has not sent any weather packets the latest 1 day(s).
| Time | Temp. | Humidity | Pressure | Rain* | Wind** | Luminosity | Snow |
|---|---|---|---|---|---|---|---|
| 1836274697 | 22.22° C | 69% | 1016.8 hPa | 0 mm | 0 m/s | - | - |
| 1836274547 | 22.22° C | 69% | 1016.8 hPa | 0 mm | 0.45 m/s, 1° | - | - |
| 1836274396 | 22.22° C | 69% | 1016.8 hPa | 0 mm | 0 m/s | - | - |
| 1836274246 | 22.22° C | 69% | 1016.7 hPa | 0 mm | 0.45 m/s, 76° | - | - |
| 1836274096 | 22.22° C | 68% | 1016.8 hPa | 0 mm | 0 m/s | - | - |
| 1778054194 | 7.78° C | 91% | 1009.8 hPa | 0 mm | 1.34 m/s, 327° | - | - |
| 1778053894 | 7.78° C | 91% | 1009.8 hPa | 0 mm | 1.34 m/s, 346° | - | - |
| 1778053594 | 7.78° C | 91% | 1009.7 hPa | 0 mm | 1.34 m/s, 46° | - | - |
| 1778053294 | 7.78° C | 91% | 1009.4 hPa | 0 mm | 0.89 m/s, 340° | - | - |
| 1778052994 | 7.78° C | 91% | 1009.6 hPa | 0 mm | 0.45 m/s, 32° | - | - |
| 1778052694 | 7.78° C | 91% | 1009.6 hPa | 0 mm | 0.45 m/s, 46° | - | - |
| 1778052394 | 7.78° C | 90% | 1009.5 hPa | 0 mm | 0.89 m/s, 347° | - | - |
| 1778052094 | 7.78° C | 89% | 1010 hPa | 0.25 mm | 1.34 m/s, 25° | - | - |
| 1778051794 | 7.78° C | 89% | 1010.1 hPa | 0.25 mm | 1.79 m/s, 46° | - | - |
| 1778051494 | 7.78° C | 90% | 1010.3 hPa | 0.25 mm | 1.79 m/s, 35° | - | - |
| 1778051194 | 7.78° C | 90% | 1010.2 hPa | 0.25 mm | 1.34 m/s, 18° | - | - |
| 1778050894 | 7.78° C | 90% | 1009.9 hPa | 0.25 mm | 1.79 m/s, 28° | - | - |
| 1778050594 | 8.33° C | 91% | 1010 hPa | 0.51 mm | 2.24 m/s, 15° | - | - |
| 1778050294 | 8.33° C | 91% | 1010.2 hPa | 0.76 mm | 2.24 m/s, 347° | - | - |
| 1778049994 | 8.33° C | 92% | 1010.2 hPa | 0.76 mm | 2.24 m/s, 11° | - | - |
| 1778049694 | 8.33° C | 92% | 1009.9 hPa | 0.76 mm | 2.68 m/s, 331° | - | - |
| 1778049394 | 8.89° C | 92% | 1010.2 hPa | 1.02 mm | 2.68 m/s, 6° | - | - |
| 1778049094 | 8.89° C | 92% | 1010 hPa | 1.27 mm | 2.68 m/s, 347° | - | - |
| 1778048794 | 8.89° C | 93% | 1010.2 hPa | 1.52 mm | 2.24 m/s, 350° | - | - |
| 1778048494 | 8.89° C | 93% | 1010.2 hPa | 1.27 mm | 1.79 m/s, 13° | - | - |
* Rain latest hour (hover to see other rain measurements)
** Current wind speed in m/s (hover to see current wind gust speed)